When you browse on this site, cookies collect data to enhance your experience and personalize the content and advertising you see.
Visit our Privacy Policy to learn more. By continuing to use the site, you agree to this use of cookies and data.
  • In Sweden
  • List of Countries
  • For 7 days
  • Water Temperature
  • Satellite Maps
  • Weather Map
  • Weather Widgets
  • user-avatar
    Login

    Hourly Weather Andora

    Today, 21 July, Sunday

    Time Temperature Precipitation Wind Pressure Humidity
    00:00 +14°C° 0 mm 0 mps 629 mmHg 82%
    01:00 +15°C° 0 mm 1 mps 629 mmHg 81%
    02:00 +14°C° 0 mm 1 mps 628 mmHg 79%
    03:00 +14°C° 0 mm 1 mps 628 mmHg 78%
    04:00 +15°C° 0 mm 1 mps 629 mmHg 74%
    05:00 +16°C° 0 mm 1 mps 629 mmHg 71%
    06:00 +18°C° 0 mm 1 mps 629 mmHg 67%
    07:00 +20°C° 0 mm 1 mps 631 mmHg 59%
    08:00 +22°C° 0 mm 1 mps 632 mmHg 51%
    09:00 +25°C° 0 mm 2 mps 633 mmHg 43%
    10:00 +26°C° 0 mm 2 mps 633 mmHg 42%
    11:00 +27°C° 0 mm 2 mps 633 mmHg 40%
    12:00 +28°C° 0 mm 2 mps 633 mmHg 38%
    13:00 +27°C° 0.1 mm 2 mps 633 mmHg 39%
    14:00 +27°C° 0.1 mm 2 mps 633 mmHg 41%
    15:00 +27°C° 0.1 mm 3 mps 633 mmHg 42%
    16:00 +26°C° 0.3 mm 2 mps 632 mmHg 48%
    17:00 +25°C° 0.3 mm 1 mps 632 mmHg 55%
    18:00 +24°C° 0.3 mm 1 mps 631 mmHg 61%
    19:00 +22°C° 0.1 mm 1 mps 631 mmHg 66%
    20:00 +20°C° 0.1 mm 1 mps 631 mmHg 71%
    21:00 +16°C° 0.1 mm 0 mps 630 mmHg 76%
    22:00 +18°C° 0 mm 1 mps 630 mmHg 76%
    23:00 +16°C° 0 mm 1 mps 630 mmHg 75%

    Tomorrow, 22 July, Monday

    Time Temperature Precipitation Wind Pressure Humidity
    00:00 +16°C° 0 mm 1 mps 630 mmHg 74%
    01:00 +16°C° 0 mm 1 mps 630 mmHg 74%
    02:00 +16°C° 0 mm 1 mps 630 mmHg 74%
    03:00 +16°C° 0 mm 1 mps 630 mmHg 74%
    04:00 +18°C° 0 mm 1 mps 630 mmHg 72%
    05:00 +18°C° 0 mm 1 mps 630 mmHg 71%
    06:00 +19°C° 0 mm 1 mps 631 mmHg 69%
    07:00 +22°C° 0 mm 1 mps 632 mmHg 58%
    08:00 +24°C° 0 mm 1 mps 633 mmHg 47%
    09:00 +27°C° 0 mm 1 mps 634 mmHg 36%
    10:00 +28°C° 0 mm 1 mps 634 mmHg 34%
    11:00 +29°C° 0 mm 2 mps 634 mmHg 32%
    12:00 +29°C° 0 mm 2 mps 634 mmHg 29%
    13:00 +29°C° 0 mm 2 mps 634 mmHg 33%
    14:00 +28°C° 0 mm 2 mps 633 mmHg 36%
    15:00 +28°C° 0 mm 2 mps 633 mmHg 39%
    16:00 +26°C° 0.2 mm 2 mps 632 mmHg 47%
    17:00 +24°C° 0.2 mm 1 mps 631 mmHg 54%
    18:00 +23°C° 0.2 mm 1 mps 630 mmHg 61%
    19:00 +21°C° 0 mm 1 mps 630 mmHg 62%
    20:00 +20°C° 0 mm 1 mps 630 mmHg 63%
    21:00 +18°C° 0 mm 1 mps 629 mmHg 65%
    22:00 +18°C° 0 mm 1 mps 629 mmHg 62%
    23:00 +18°C° 0 mm 1 mps 629 mmHg 59%

    Day after tomorrow, 23 July, Tuesday

    Time Temperature Precipitation Wind Pressure Humidity
    00:00 +18°C° 0 mm 1 mps 629 mmHg 56%
    01:00 +18°C° 0 mm 1 mps 629 mmHg 54%
    02:00 +18°C° 0 mm 1 mps 628 mmHg 52%
    03:00 +18°C° 0 mm 1 mps 628 mmHg 50%
    04:00 +18°C° 0 mm 1 mps 628 mmHg 50%
    05:00 +19°C° 0 mm 1 mps 628 mmHg 50%
    06:00 +20°C° 0 mm 1 mps 629 mmHg 50%
    07:00 +22°C° 0 mm 1 mps 630 mmHg 43%
    08:00 +25°C° 0 mm 1 mps 631 mmHg 36%
    09:00 +27°C° 0 mm 1 mps 631 mmHg 29%
    10:00 +28°C° 0 mm 2 mps 631 mmHg 27%
    11:00 +29°C° 0 mm 2 mps 631 mmHg 26%
    12:00 +29°C° 0 mm 2 mps 631 mmHg 24%
    13:00 +29°C° 0 mm 2 mps 631 mmHg 25%
    14:00 +29°C° 0 mm 2 mps 631 mmHg 25%
    15:00 +29°C° 0 mm 3 mps 630 mmHg 26%
    16:00 +28°C° 0 mm 2 mps 630 mmHg 33%
    17:00 +26°C° 0 mm 2 mps 629 mmHg 40%
    18:00 +25°C° 0 mm 2 mps 629 mmHg 47%
    19:00 +23°C° 0 mm 2 mps 628 mmHg 51%
    20:00 +21°C° 0 mm 1 mps 628 mmHg 55%
    21:00 +18°C° 0 mm 1 mps 627 mmHg 59%
    22:00 +18°C° 0 mm 1 mps 627 mmHg 58%
    23:00 +18°C° 0 mm 1 mps 627 mmHg 57%

    24 July, Wednesday

    Time Temperature Precipitation Wind Pressure Humidity
    00:00 +18°C° 0 mm 1 mps 627 mmHg 56%
    01:00 +18°C° 0 mm 1 mps 627 mmHg 55%
    02:00 +16°C° 0 mm 1 mps 627 mmHg 53%
    03:00 +16°C° 0 mm 1 mps 626 mmHg 52%
    04:00 +18°C° 0 mm 1 mps 627 mmHg 52%
    05:00 +19°C° 0 mm 1 mps 627 mmHg 52%
    06:00 +19°C° 0 mm 1 mps 627 mmHg 52%
    07:00 +22°C° 0 mm 1 mps 628 mmHg 45%
    08:00 +24°C° 0 mm 1 mps 630 mmHg 38%
    09:00 +27°C° 0 mm 1 mps 631 mmHg 31%
    10:00 +28°C° 0 mm 2 mps 631 mmHg 29%
    11:00 +28°C° 0 mm 2 mps 631 mmHg 27%
    12:00 +29°C° 0 mm 2 mps 631 mmHg 25%
    13:00 +29°C° 0 mm 2 mps 630 mmHg 27%
    14:00 +29°C° 0 mm 2 mps 630 mmHg 28%
    15:00 +28°C° 0 mm 2 mps 630 mmHg 30%
    16:00 +27°C° 0 mm 2 mps 629 mmHg 37%
    17:00 +26°C° 0 mm 2 mps 629 mmHg 44%
    18:00 +25°C° 0 mm 1 mps 628 mmHg 51%
    19:00 +22°C° 0 mm 1 mps 628 mmHg 58%
    20:00 +20°C° 0 mm 1 mps 627 mmHg 64%
    21:00 +18°C° 0 mm 1 mps 627 mmHg 71%
    22:00 +18°C° 0 mm 1 mps 626 mmHg 69%
    23:00 +18°C° 0 mm 1 mps 626 mmHg 68%

    25 July, Thursday

    Time Temperature Precipitation Wind Pressure Humidity
    00:00 +18°C° 0 mm 1 mps 626 mmHg 66%
    01:00 +16°C° 0 mm 1 mps 626 mmHg 66%
    02:00 +16°C° 0 mm 1 mps 626 mmHg 65%
    03:00 +16°C° 0 mm 1 mps 625 mmHg 65%
    04:00 +18°C° 0 mm 1 mps 626 mmHg 63%
    05:00 +18°C° 0 mm 1 mps 626 mmHg 61%
    06:00 +19°C° 0 mm 1 mps 626 mmHg 58%
    07:00 +22°C° 0 mm 1 mps 627 mmHg 49%
    08:00 +24°C° 0 mm 2 mps 628 mmHg 40%
    09:00 +26°C° 0 mm 2 mps 629 mmHg 31%
    10:00 +27°C° 0 mm 2 mps 629 mmHg 30%
    11:00 +28°C° 0 mm 2 mps 629 mmHg 28%
    12:00 +29°C° 0 mm 3 mps 629 mmHg 27%
    13:00 +29°C° 0 mm 3 mps 629 mmHg 28%
    14:00 +29°C° 0 mm 3 mps 629 mmHg 28%
    15:00 +29°C° 0 mm 3 mps 628 mmHg 29%
    16:00 +27°C° 0 mm 3 mps 628 mmHg 36%
    17:00 +26°C° 0 mm 2 mps 627 mmHg 43%
    18:00 +24°C° 0 mm 2 mps 626 mmHg 50%
    19:00 +21°C° 0 mm 2 mps 626 mmHg 56%
    20:00 +20°C° 0 mm 1 mps 626 mmHg 62%
    21:00 +18°C° 0 mm 1 mps 625 mmHg 68%
    22:00 +18°C° 0 mm 1 mps 625 mmHg 68%
    23:00 +18°C° 0 mm 1 mps 625 mmHg 69%

    26 July, Friday

    Time Temperature Precipitation Wind Pressure Humidity
    00:00 +16°C° 0 mm 1 mps 626 mmHg 69%
    01:00 +16°C° 0 mm 1 mps 626 mmHg 68%
    02:00 +15°C° 0 mm 0 mps 626 mmHg 68%
    03:00 +14°C° 0 mm 0 mps 625 mmHg 67%
    04:00 +16°C° 0 mm 1 mps 626 mmHg 67%
    05:00 +16°C° 0 mm 1 mps 626 mmHg 68%
    06:00 +16°C° 0 mm 1 mps 627 mmHg 69%
    07:00 +19°C° 0 mm 1 mps 627 mmHg 63%
    08:00 +20°C° 0 mm 2 mps 628 mmHg 57%
    09:00 +21°C° 0 mm 2 mps 629 mmHg 51%
    10:00 +23°C° 0 mm 2 mps 629 mmHg 49%
    11:00 +24°C° 0 mm 3 mps 629 mmHg 46%
    12:00 +25°C° 0 mm 3 mps 630 mmHg 43%
    13:00 +25°C° 0 mm 4 mps 629 mmHg 44%
    14:00 +25°C° 0 mm 4 mps 629 mmHg 45%
    15:00 +25°C° 0 mm 4 mps 629 mmHg 45%
    16:00 +24°C° 0 mm 3 mps 629 mmHg 51%
    17:00 +22°C° 0 mm 3 mps 628 mmHg 56%
    18:00 +20°C° 0 mm 2 mps 628 mmHg 62%
    19:00 +19°C° 0 mm 1 mps 628 mmHg 71%
    20:00 +16°C° 0 mm 1 mps 627 mmHg 81%
    21:00 +13°C° 0 mm 0 mps 627 mmHg 90%
    22:00 +13°C° 0 mm 0 mps 627 mmHg 91%
    23:00 +13°C° 0 mm 0 mps 627 mmHg 91%
    Show more